Regional Weather Roundup
Issued by NWS Goodland, KS

Home | Current Version | Previous Version | Graphics & Text | Print | Product List | Glossary On
Versions: 1 2 3 4 5 6 7 8 9 10 11 12 13 14 15 16 17 18 19 20 21 22 23 24 25 26 27 28 29 30 31 32 33 34 35 36 37 38 39 40 41 42 43 44 45 46 47 48 49 50
000
ASUS43 KGLD 230508
RWRGLD

GOODLAND FORECAST AREA HOURLY WEATHER ROUNDUP
NATIONAL WEATHER SERVICE GOODLAND KS
1000 PM MST SAT NOV 22 2014

...OFFICIAL OBSERVATIONS...

CITY           SKY/WX    TMP DP  RH WIND       PRES   REMARKS
GOODLAND KS    CLOUDY    47  26  44 SW7       29.50S
HILL CITY KS   MOCLDY    54  49  83 S13G22    29.52F
IMPERIAL NEB   CLOUDY    41  17  38 E6        29.49F
MCCOOK NEB     MOCLDY    45  25  45 W9        29.53R
AKRON CO       CLOUDY    40  17  39 NW5       29.54F
BURLINGTON CO  CLOUDY    41  18  39 NW7       29.51F
LIMON CO       CLOUDY    41  21  44 N9        29.57S
$$

...UNOFFICIAL OBSERVATIONS...

CITY           SKY/WX    TMP DP  RH WIND       PRES   REMARKS
COLBY KS       CLEAR     48  43  81 S12G17    29.50F
GOVE KS          N/A     51  32  48 MISG        N/A
NORTON KS      CLOUDY    50  45  81 SW6       29.51S
SHARON SPRINGS   N/A     37  24  60 S12         N/A
TRIBUNE KS     CLOUDY    43  28  56 SE13      29.50F
TRENTON NEB      N/A     51  32  48 CALM        N/A
YUMA CO          N/A     39  15  38 CALM        N/A
$$



USA.gov is the U.S. government's official web portal to all federal, state and local government web resources and services.